Location: Newark
(35.9031°N, 139.7175°E)
Time: 05:02:49
(UTC+00:00)

Vanguard 2 - All Passes

Search period start: 06 June 2020 00:00
Search period end: 16 June 2020 00:00
Orbit: 552 x 2938 km, 32.9° (Epoch: 05 June)

Date Brightness Start Highest point End Pass type
(mag) Time Alt. Az. Time Alt. Az. Time Alt. Az.
06 Jun - 03:10:03 10° SE 03:11:37 10° SE 03:13:10 10° SE daylight
06 Jun - 05:07:41 10° SSW 05:22:31 34° SSE 05:34:56 10° E daylight
06 Jun - 07:17:18 10° SW 07:34:02 61° SSE 07:45:26 10° E daylight
06 Jun - 09:30:23 10° W 09:45:12 77° S 09:54:01 10° E daylight
06 Jun - 11:44:03 10° W 11:55:03 59° SSW 12:01:31 10° ESE visible
06 Jun - 13:57:39 10° W 14:02:44 19° SW 14:06:36 10° S visible
07 Jun - 03:20:10 10° SSE 03:29:18 16° SE 03:38:10 10° ESE daylight
07 Jun - 05:24:21 10° SSW 05:40:21 42° SSE 05:53:25 10° E daylight
07 Jun - 07:35:05 10° WSW 07:52:02 68° SSE 08:03:24 10° E daylight
07 Jun - 09:48:37 10° W 10:03:12 77° S 10:11:50 10° E daylight
07 Jun - 12:02:18 10° W 12:12:44 50° SSW 12:19:02 10° SE visible
07 Jun - 14:17:18 10° WSW 14:19:59 12° SW 14:22:20 10° SSW visible
08 Jun - 03:34:51 10° S 03:46:57 23° SE 03:58:33 10° E daylight
08 Jun - 05:41:25 10° SW 05:58:14 50° SSE 06:11:40 10° E daylight
08 Jun - 07:53:02 10° WSW 08:10:05 74° S 08:21:18 10° E daylight
08 Jun - 10:06:51 10° W 10:21:10 74° S 10:29:38 10° ESE visible
08 Jun - 12:20:37 10° W 12:30:18 39° SSW 12:36:22 10° SE visible
09 Jun - 03:50:38 10° SSW 04:04:35 30° SE 04:17:51 10° E daylight
09 Jun - 05:58:48 10° SW 06:16:09 58° SSE 06:29:47 10° E daylight
09 Jun - 08:11:09 10° WSW 08:28:09 77° S 08:39:12 10° E daylight
09 Jun - 10:25:07 10° W 10:39:05 68° SSW 10:47:21 10° ESE visible
09 Jun - 12:39:06 10° W 12:47:44 30° SW 12:53:27 10° SSE visible
10 Jun - 02:06:17 10° SSE 02:11:48 12° SE 02:17:27 10° ESE daylight
10 Jun - 04:07:03 10° SSW 04:22:16 38° SE 04:36:36 10° E daylight
10 Jun - 06:16:25 10° WSW 06:34:08 66° SSE 06:47:49 10° E daylight
10 Jun - 08:29:20 10° W 08:46:14 79° S 08:57:05 10° E daylight
10 Jun - 10:43:22 10° W 10:56:54 61° SSW 11:04:59 10° ESE visible
10 Jun - 12:57:54 10° W 13:05:01 22° SW 13:10:08 10° S visible
11 Jun - 02:19:24 10° S 02:29:16 19° SE 02:39:36 10° E daylight
11 Jun - 04:23:54 10° SW 04:40:00 46° SSE 04:55:02 10° E daylight
11 Jun - 06:34:14 10° WSW 06:52:10 72° SSE 07:05:48 10° E daylight
11 Jun - 08:47:35 10° W 09:04:17 78° S 09:14:56 10° ESE daylight
11 Jun - 11:01:40 10° W 11:14:36 51° SSW 11:22:28 10° SE visible
11 Jun - 13:17:24 10° WSW 13:22:13 15° SW 13:26:04 10° SSW visible
12 Jun - 02:34:38 10° S 02:46:43 26° SE 02:59:35 10° E daylight
12 Jun - 04:41:05 10° SW 04:57:48 55° SSE 05:13:17 10° E daylight
12 Jun - 06:52:14 10° WSW 07:10:16 77° S 07:23:45 10° E daylight
12 Jun - 09:05:50 10° W 09:22:19 75° SSW 09:32:45 10° ESE daylight
12 Jun - 11:20:02 10° W 11:32:08 42° SW 11:39:46 10° SE visible
13 Jun - 02:50:44 10° SSW 03:04:12 33° SE 03:18:43 10° E daylight
13 Jun - 04:58:32 10° SW 05:15:42 62° SSE 05:31:24 10° E daylight
13 Jun - 07:10:20 10° W 07:28:24 79° S 07:41:43 10° E daylight
13 Jun - 09:24:06 10° W 09:40:15 69° SSW 09:50:29 10° ESE daylight
13 Jun - 11:38:35 10° W 11:49:32 33° SW 11:56:47 10° SSE visible
14 Jun - 01:05:58 10° SSE 01:11:58 13° SE 01:18:27 10° ESE daylight
14 Jun - 03:07:20 10° SSW 03:21:44 41° SE 03:37:24 10° E daylight
14 Jun - 05:16:13 10° WSW 05:33:41 69° SSE 05:49:28 10° E daylight
14 Jun - 07:28:31 10° W 07:46:33 80° S 07:59:38 10° E daylight
14 Jun - 09:42:22 10° W 09:58:05 61° SSW 10:08:05 10° SE daylight
14 Jun - 11:57:27 10° W 12:06:48 25° SW 12:13:25 10° S visible
15 Jun - 01:19:54 10° S 01:29:14 20° SE 01:39:54 10° E daylight
15 Jun - 03:24:19 10° SW 03:39:23 49° SSE 03:55:49 10° E daylight
15 Jun - 05:34:04 10° WSW 05:51:46 75° SSE 06:07:31 10° E daylight
15 Jun - 07:46:44 10° W 08:04:40 78° S 08:17:31 10° ESE daylight
15 Jun - 10:00:41 10° W 10:15:47 52° SSW 10:25:32 10° SE daylight
15 Jun - 12:16:56 10° W 12:23:56 17° SW 12:29:23 10° SSW visible
